{"data":{"norad_id":65895,"epoch":"2026-09-19T12:37:51.016224Z","epoch_age_seconds":190196,"freshness":"STALE","line1":"1 65895U 25224P   26262.52628491  .00012583  00000+0  38278-3 0  9992","line2":"2 65895  53.1596 186.5898 0000582  99.5250 260.5818 15.34411602 54617","mean_motion":15.34411602,"eccentricity":5.82e-5,"inclination_deg":53.1596,"raan_deg":186.5898,"arg_perigee_deg":99.525,"mean_anomaly_deg":260.5818,"bstar":0.00038278,"rev_number":5461,"period_min":93.847048479238,"perigee_km":462.27062194033,"apogee_km":463.06689173042,"semimajor_km":6840.8057568354,"source":"CELESTRAK","updated_at":"2026-09-21T09:00:35.758934Z"}}